Regional Weather Roundup
Issued by NWS

Home | Current Version | Previous Version | Graphics & Text | Print | Product List | Glossary On
Versions: 1 2 3 4 5 6 7 8 9 10 11 12 13 14 15 16 17 18 19 20 21 22 23 24 25 26 27 28 29 30 31 32 33 34 35 36 37 38 39 40 41 42 43 44 45 46 47 48 49 50
000
ASUS43 KOAX 312002
RWRNE

WEATHER ROUNDUP FOR NEBRASKA
NATIONAL WEATHER SERVICE OMAHA NE
300 PM CDT MON AUG 31 2015

NOTES: SATELLITE DATA IS BEING USED TO AUGMENT CLOUD COVER ABOVE
       12000 FEET.
       "FAIR" INDICATES FEW OR NO CLOUDS BELOW 12,000 FEET WITH NO
       SIGNIFICANT WEATHER AND/OR OBSTRUCTIONS TO VISIBILITY.

  * THESE STATIONS DO NOT REPORT WEATHER SUCH AS RAIN...SNOW OR FOG.

NEZ001>004-019>022-054>056-312100-
NEBRASKA PANHANDLE

CITY           SKY/WX    TMP DP  RH WIND       PRES   REMARKS
SCOTTSBLUFF    PTSUNNY   86  50  28 VRB3      30.01F
ALLIANCE       PTSUNNY   81  52  36 NE7       30.02S
CHADRON        PTSUNNY   77  55  46 E7        30.00F HAZE
KIMBALL        PTSUNNY   80  50  34 E8        30.06F
SIDNEY         CLOUDY    85  51  31 MISG      30.05F
$$

NEZ057>060-069>072-079>082-312100-
SOUTHWEST NEBRASKA

CITY           SKY/WX    TMP DP  RH WIND       PRES   REMARKS
NORTH PLATTE   SUNNY     91  56  30 E8        29.92F
IMPERIAL       MOSUNNY   93  54  26 NE15      29.94F HX  91
LEXINGTON      SUNNY     89  66  46 SE9       29.92S HX  91
MC COOK        SUNNY     93  57  29 S8        29.90F HX  91
OGALLALA       PTSUNNY   90  50  25 N22       29.95F
$$

NEZ005>010-023>029-035>040-094-312100-
NORTH CENTRAL NEBRASKA

CITY           SKY/WX    TMP DP  RH WIND       PRES   REMARKS
VALENTINE      PTSUNNY   81  58  45 N12       29.97R
AINSWORTH      MOSUNNY   86  60  40 N16       29.94R
BROKEN BOW     SUNNY     89  62  40 S7        29.92S
O`NEILL        SUNNY     89  63  42 S14       29.89S
ORD            SUNNY     90  62  39 S12G21    29.88F HX  90
THEDFORD       MOSUNNY   92  56  29 N8        29.95S HX  90
$$

NEZ041-046>049-061>064-073>077-083>087-312100-
SOUTH CENTRAL NEBRASKA

CITY           SKY/WX    TMP DP  RH WIND       PRES   REMARKS
GRAND ISLAND   SUNNY     88  65  46 S13G20    29.92F HX  90
AURORA         SUNNY     86  68  54 S12       29.92F
HASTINGS       SUNNY     88  64  44 S12       29.92F
HEBRON         SUNNY     88  62  42 S9G16     29.92F
HOLDREGE       SUNNY     86  61  42 S9        29.93S
KEARNEY *      SUNNY     88  64  45 SE13      29.92S
YORK           SUNNY     84  70  61 S14       29.92F
$$

NEZ011>018-030>034-042>045-312100-
NORTHEAST NEBRASKA

CITY           SKY/WX    TMP DP  RH WIND       PRES   REMARKS
NORFOLK        SUNNY     84  67  56 S15       29.91F
ALBION         SUNNY     83  66  56 S13       29.92F
BLAIR          FAIR      82  67  61 S10       29.93F
COLUMBUS *     SUNNY     82  68  61 SW9       29.93R
FREMONT        SUNNY     84  67  55 S13       29.93F
TEKAMAH        MOSUNNY   84  69  60 S10       29.92F
$$

NEZ050>053-065>068-078-088>093-312100-
SOUTHEAST NEBRASKA

CITY           SKY/WX    TMP DP  RH WIND       PRES   REMARKS
LINCOLN        MOSUNNY   86  68  54 S10G20    29.93F
OMAHA EPPLEY   MOSUNNY   85  67  54 S12       29.93F
BEATRICE       SUNNY     85  68  56 S9G17     29.94F
FALLS CITY     SUNNY     88  66  48 S6        29.94F HX  90
NEBRASKA CITY  MOSUNNY   85  59  41 S10       29.96S
PLATTSMOUTH    MOSUNNY   82  65  56 S9        29.94F
$$

NEZ044-045-051>053-067-312100-
OMAHA AREA

CITY           SKY/WX    TMP DP  RH WIND       PRES   REMARKS
EPPLEY FIELD   MOSUNNY   85  67  54 S12       29.93F
BLAIR          MOSUNNY   82  67  61 S10       29.93F
FREMONT        SUNNY     84  67  55 S13       29.93F
MILLARD        MOSUNNY   84  69  60 S12G17    29.93F
OFFUTT AFB     MOSUNNY   84  68  58 S12       29.93F
PLATTSMOUTH    MOSUNNY   82  65  56 S9        29.94F
WAHOO          FAIR      84  69  58 S12       29.93F
$$



USA.gov is the U.S. government's official web portal to all federal, state and local government web resources and services.